Location: Lawrence Hall of Science
(37.8785°N, 122.2415°W)
Time: 06:31:06
(UTC-07:00)

ARGOS - Visible Passes

Search period start: 22 September 2017 00:00
Search period end: 02 October 2017 00:00
Orbit: 821 x 834 km, 98.6° (Epoch: 21 September)

Date Brightness Start Highest point End Pass type
(mag) Time Alt. Az. Time Alt. Az. Time Alt. Az.
22 Sep 4.8 21:42:55 23° NNE 21:42:55 23° NNE 21:45:08 10° N visible
22 Sep 6.0 23:24:27 11° NW 23:24:27 11° NW 23:24:45 10° NW visible
23 Sep 4.9 21:24:15 19° NNE 21:24:15 19° NNE 21:26:12 10° N visible
23 Sep 5.8 23:05:47 14° NW 23:05:47 14° NW 23:06:42 10° NNW visible
24 Sep 5.1 21:05:36 15° NNE 21:05:36 15° NNE 21:07:03 10° NNE visible
24 Sep 5.6 22:47:07 17° NNW 22:47:07 17° NNW 22:48:25 10° NNW visible
25 Sep 5.3 20:46:56 11° NE 20:46:56 11° NE 20:47:27 10° NNE visible
25 Sep 5.4 22:28:27 19° NNW 22:28:27 19° NNW 22:29:58 10° NNW visible
26 Sep 5.2 22:09:47 20° N 22:09:47 20° N 22:11:23 10° N visible
27 Sep 5.2 21:51:07 19° N 21:51:07 19° N 21:52:40 10° N visible
28 Sep 5.2 21:32:27 17° NNE 21:32:27 17° NNE 21:33:49 10° N visible
29 Sep 5.3 21:13:48 14° NNE 21:13:48 14° NNE 21:14:46 10° NNE visible
29 Sep 6.0 22:55:19 12° NNW 22:55:19 12° NNW 22:55:46 10° NNW visible
30 Sep 5.4 20:55:08 11° NNE 20:55:08 11° NNE 20:55:25 10° NNE visible
30 Sep 5.8 22:36:39 14° NNW 22:36:39 14° NNW 22:37:22 10° NNW visible
01 Oct 5.6 22:17:59 15° N 22:17:59 15° N 22:18:51 10° NNW visible
